DW7251 Weather Reports


Display with metric or nautical units.
time (UTC)temp
F
wind
direction
speed
MPH
gust
MPH
rain 1hr
in
rain 24hr
in
rain mn
in
humidity
%
barometer
mb
20260508102209 57 207 5.0 13.0 0.00 0.03 0.02 83 1024.6
20260508101716 58 115 6.0 13.0 0.00 0.03 0.02 84 1024.7
20260508101226 58 166 6.0 13.0 0.00 0.03 0.02 84 1024.6
20260508100707 58 130 5.0 12.0 0.00 0.03 0.02 84 1024.6
20260508100152 58 191 4.0 10.0 0.00 0.03 0.02 83 1024.5
20260508095650 58 175 3.0 11.0 0.00 0.03 0.02 83 1024.4
20260508095149 58 177 3.0 11.0 0.00 0.03 0.02 83 1024.4
20260508094026 58 148 5.0 11.0 0.00 0.03 0.02 83 1024.2
20260508092230 57 168 6.0 14.0 0.00 0.03 0.02 84 1023.9
20260508091712 57 148 7.0 14.0 0.00 0.03 0.02 84 1024.0
20260508091153 58 148 7.0 14.0 0.00 0.03 0.02 84 1024.0
20260508090652 58 179 6.0 12.0 0.00 0.03 0.02 84 1024.0
20260508090145 58 131 5.0 10.0 0.00 0.03 0.02 84 1023.9
20260508085652 58 193 5.0 15.0 0.00 0.03 0.02 84 1023.9
20260508084548 58 146 6.0 15.0 0.00 0.03 0.02 85 1023.8
20260508084046 58 191 4.0 15.0 0.00 0.03 0.02 85 1023.7
20260508083555 58 179 4.0 10.0 0.00 0.03 0.02 85 1023.7
20260508083038 58 148 5.0 10.0 0.00 0.03 0.02 86 1023.7
20260508082541 58 236 4.0 10.0 0.00 0.03 0.02 85 1023.6
20260508082039 58 176 4.0 10.0 0.00 0.03 0.02 86 1023.5
20260508081548 58 204 4.0 9.0 0.00 0.03 0.02 85 1023.6
20260508081043 57 229 5.0 11.0 0.00 0.03 0.02 85 1023.5
20260508080533 58 189 6.0 11.0 0.00 0.03 0.02 85 1023.5
20260508075402 58 217 5.0 11.0 0.00 0.03 0.02 84 1023.5
20260508074855 58 75 4.0 10.0 0.00 0.03 0.02 85 1023.4
20260508074350 58 198 4.0 9.0 0.00 0.03 0.02 84 1023.5
20260508073853 58 152 4.0 11.0 0.00 0.03 0.02 83 1023.3
20260508073333 59 218 4.0 11.0 0.00 0.04 0.02 83 1023.0
20260508072214 58 130 5.0 11.0 0.00 0.04 0.02 83 1023.0
20260508071718 58 212 5.0 10.0 0.00 0.04 0.02 83 1023.0
20260508071202 59 170 4.0 10.0 0.00 0.04 0.02 84 1022.9
20260508070647 59 137 4.0 9.0 0.00 0.04 0.02 84 1023.0
20260508064851 59 212 4.0 9.0 0.00 0.04 0.02 83 1022.9
20260508064344 59 212 3.0 8.0 0.00 0.04 0.02 82 1022.9
20260508063842 59 130 3.0 8.0 0.00 0.04 0.02 82 1022.9
20260508063332 59 129 4.0 10.0 0.00 0.04 0.02 81 1022.8
20260508062829 59 179 5.0 10.0 0.00 0.04 0.02 81 1022.8
20260508062328 59 134 5.0 11.0 0.00 0.04 0.02 80 1022.7
20260508061810 59 143 5.0 11.0 0.00 0.04 0.02 81 1022.7
20260508061300 60 123 5.0 11.0 0.00 0.04 0.02 81 1022.6
20260508060809 60 133 4.0 11.0 0.00 0.04 0.02 81 1022.6
20260508055657 59 134 4.0 11.0 0.00 0.04 0.02 81 1022.7
20260508055140 59 138 5.0 11.0 0.00 0.04 0.02 81 1022.5
20260508053344 59 189 5.0 11.0 0.00 0.04 0.02 82 1022.7
20260508052843 59 202 6.0 13.0 0.00 0.04 0.02 82 1022.6
20260508052334 59 196 6.0 13.0 0.00 0.04 0.02 82 1022.7
20260508051841 59 155 6.0 13.0 0.00 0.04 0.02 81 1022.6
20260508051338 59 155 6.0 13.0 0.00 0.04 0.02 81 1022.6
20260508050846 59 149 5.0 9.0 0.00 0.04 0.02 81 1022.5
20260508050349 59 155 5.0 9.0 0.00 0.04 0.02 81 1022.5
20260508045833 59 160 5.0 11.0 0.00 0.04 0.02 81 1022.5
20260508045328 59 175 6.0 11.0 0.00 0.04 0.02 81 1022.6
20260508044836 60 232 6.0 13.0 0.00 0.04 0.02 80 1022.6
20260508043038 60 171 7.0 12.0 0.00 0.06 0.02 78 1022.4
20260508042546 60 177 5.0 12.0 0.00 0.06 0.02 79 1022.5
20260508042050 60 186 5.0 13.0 0.00 0.06 0.02 79 1022.4
20260508041546 60 127 6.0 13.0 0.00 0.06 0.02 79 1022.3
20260508041055 61 146 6.0 13.0 0.00 0.06 0.02 79 1022.2
20260508040546 61 111 4.0 13.0 0.00 0.06 0.02 79 1022.2
20260508040031 61 139 3.0 11.0 0.00 0.06 0.02 78 1022.2
20260508035532 61 156 4.0 11.0 0.00 0.07 0.02 78 1022.2
20260508035029 60 102 4.0 11.0 0.00 0.07 0.02 78 1022.2
20260508034509 60 143 3.0 10.0 0.00 0.07 0.02 79 1022.2
20260508034010 60 134 3.0 9.0 0.00 0.07 0.02 79 1022.2
20260508033452 60 263 3.0 11.0 0.00 0.07 0.02 79 1022.1
20260508032313 60 70 5.0 11.0 0.00 0.07 0.02 78 1022.2
20260508031753 60 174 5.0 11.0 0.00 0.07 0.02 77 1022.1
20260508031255 60 104 4.0 11.0 0.00 0.07 0.02 78 1022.1
20260508030757 60 139 4.0 9.0 0.00 0.07 0.02 78 1022.2
20260508030304 60 144 4.0 10.0 0.00 0.07 0.02 77 1022.3
20260508025750 60 283 4.0 10.0 0.00 0.07 0.02 77 1022.3
20260508025247 60 143 3.0 10.0 0.00 0.08 0.02 78 1022.2
20260508024732 61 124 3.0 10.0 0.00 0.11 0.02 77 1022.2
20260508024225 61 67 3.0 9.0 0.00 0.11 0.02 78 1022.2
20260508023117 60 122 3.0 9.0 0.00 0.11 0.02 81 1022.2
20260508022605 60 123 3.0 10.0 0.00 0.13 0.02 81 1022.5
20260508022059 59 67 2.0 10.0 0.00 0.14 0.02 82 1022.6
20260508021558 59 75 3.0 10.0 0.00 0.14 0.02 81 1022.7
20260508020427 59 251 1.0 9.0 0.00 0.15 0.02 84 1022.8
20260508015927 59 93 1.0 6.0 0.00 0.15 0.02 85 1022.7
20260508015420 59 160 1.0 5.0 0.00 0.15 0.02 86 1022.7
20260508014259 59 48 1.0 7.0 0.00 0.15 0.02 86 1022.9
20260508013740 58 334 2.0 7.0 0.00 0.15 0.02 86 1022.9
20260508013221 58 314 1.0 7.0 0.00 0.15 0.02 87 1022.6
20260508012725 58 255 0.0 6.0 0.00 0.14 0.01 87 1022.6
20260508011615 58 280 2.0 9.0 0.00 0.16 0.01 86 1022.6
20260508011121 58 23 3.0 10.0 0.00 0.16 0.01 85 1022.6
20260508010604 59 56 3.0 10.0 0.00 0.16 0.01 85 1022.6
20260508010110 59 259 3.0 10.0 0.00 0.18 0.01 85 1022.6
20260508005610 59 292 3.0 10.0 0.00 0.20 0.01 86 1022.5
20260508005102 58 117 3.0 12.0 0.00 0.20 0.01 86 1022.5
20260508004001 58 154 3.0 12.0 0.00 0.20 0.01 86 1022.5
20260508003445 58 243 2.0 12.0 0.00 0.20 0.01 86 1022.5
20260508002943 58 301 2.0 8.0 0.00 0.20 0.01 86 1022.4
20260508002437 58 301 2.0 8.0 0.00 0.21 0.01 87 1022.2
20260508001939 58 310 2.0 9.0 0.00 0.21 0.01 87 1022.2
20260508001444 58 41 2.0 9.0 0.00 0.22 0.01 87 1022.2
20260508000949 57 265 2.0 9.0 0.00 0.25 0.01 87 1022.1
20260508000438 57 260 2.0 9.0 0.00 0.28 0.01 87 1022.1
20260507235946 57 246 2.0 8.0 0.00 0.28 0.01 87 1022.1
20260507235436 57 305 2.0 8.0 0.00 0.28 0.01 88 1022.2
20260507234938 57 322 3.0 8.0 0.00 0.28 0.01 87 1022.1
20260507234424 57 283 2.0 8.0 0.00 0.28 0.01 88 1022.1
20260507233927 57 338 2.0 8.0 0.00 0.28 0.01 88 1022.1
20260507233418 57 331 2.0 8.0 0.00 0.33 0.01 89 1022.0
20260507232924 57 38 2.0 9.0 0.00 0.37 0.01 89 1021.9
20260507232434 57 293 2.0 9.0 0.00 0.37 0.01 89 1021.8
20260507231921 56 288 2.0 10.0 0.00 0.37 0.01 89 1021.9
20260507231406 57 255 3.0 10.0 0.00 0.37 0.01 89 1021.8
20260507230854 57 300 3.0 10.0 0.00 0.37 0.01 90 1021.7
20260507230357 56 239 3.0 10.0 0.00 0.37 0.01 89 1021.7
20260507225215 56 9 2.0 10.0 0.00 0.37 0.00 89 1021.7
20260507224702 56 259 2.0 10.0 0.00 0.40 0.00 89 1021.7
20260507224206 56 338 3.0 10.0 0.00 0.44 0.00 89 1021.7
20260507223712 56 315 3.0 10.0 0.00 0.44 0.00 89 1021.6
20260507223212 56 259 3.0 10.0 0.00 0.45 0.00 90 1021.5
20260507222712 56 252 3.0 10.0 0.00 0.48 0.00 89 1021.5
20260507222214 56 172 3.0 9.0 0.00 0.48 0.00 89 1021.4
20260507221704 56 282 3.0 8.0 0.00 0.48 0.00 89 1021.5
20260507221211 56 249 3.0 8.0 0.00 0.48 0.00 90 1021.5
20260507220656 56 256 3.0 8.0 0.00 0.48 0.00 90 1021.3
20260507215507 56 300 3.0 8.0 0.00 0.48 0.00 90 1021.2
20260507215004 56 291 2.0 9.0 0.00 0.48 0.00 89 1021.0
20260507214445 56 255 2.0 9.0 0.00 0.48 0.00 89 1020.9
20260507213926 56 41 3.0 9.0 0.00 0.49 0.00 89 1020.9
20260507213410 56 288 4.0 9.0 0.00 0.51 0.00 89 1020.7
20260507212916 56 33 4.0 11.0 0.00 0.52 0.00 89 1020.7
20260507211726 56 229 5.0 11.0 0.00 0.56 0.00 89 1020.5
20260507211227 56 46 5.0 11.0 0.00 0.59 0.00 88 1020.5
20260507210724 56 270 4.0 10.0 0.00 0.59 0.00 88 1020.3
20260507210228 57 37 4.0 13.0 0.00 0.59 0.00 88 1020.4
20260507205719 57 9 4.0 13.0 0.00 0.62 0.00 88 1020.3
20260507205208 57 34 5.0 13.0 0.00 0.64 0.00 88 1020.4
20260507204709 57 272 4.0 13.0 0.00 0.65 0.00 88 1020.3
20260507204155 57 359 4.0 11.0 0.00 0.66 0.00 88 1020.2
20260507203638 57 33 5.0 11.0 0.00 0.66 0.00 88 1020.2
20260507203127 57 293 5.0 11.0 0.00 0.68 0.00 88 1020.2
20260507202615 57 20 5.0 11.0 0.00 0.69 0.00 87 1020.3
20260507202117 57 21 4.0 11.0 0.00 0.69 0.00 87 1020.2
20260507201613 57 314 4.0 11.0 0.00 0.70 0.00 87 1020.2
20260507201114 57 312 5.0 12.0 0.00 0.70 0.00 87 1020.1
20260507200610 57 241 5.0 12.0 0.00 0.72 0.00 87 1020.1
20260507200115 57 274 5.0 13.0 0.00 0.74 0.00 87 1019.9
20260507195600 57 308 5.0 13.0 0.00 0.75 0.00 87 1019.9
20260507195100 57 242 5.0 15.0 0.00 0.77 0.00 87 1019.8
20260507194603 57 296 5.0 15.0 0.00 0.77 0.00 87 1019.7
20260507194057 57 75 6.0 15.0 0.00 0.77 0.00 87 1019.7
20260507193547 57 293 6.0 15.0 0.00 0.77 0.00 87 1019.7
20260507192414 57 276 5.0 12.0 0.00 0.79 0.00 88 1019.5
20260507191921 57 11 6.0 12.0 0.00 0.79 0.00 87 1019.5
20260507190748 57 224 5.0 12.0 0.00 0.79 0.00 87 1019.6
20260507190245 57 305 5.0 12.0 0.00 0.79 0.00 87 1019.5
20260507185725 57 267 5.0 12.0 0.00 0.79 0.00 87 1019.4
20260507185221 57 326 5.0 13.0 0.00 0.81 0.00 87 1019.4
20260507184729 57 304 5.0 13.0 0.00 0.81 0.00 87 1019.4
20260507184215 57 256 5.0 13.0 0.00 0.82 0.00 87 1019.3
20260507183712 57 305 5.0 13.0 0.00 0.83 0.00 87 1019.3
20260507183158 57 300 5.0 10.0 0.00 0.83 0.00 87 1019.2
20260507182708 57 222 4.0 10.0 0.00 0.83 0.00 87 1019.2
20260507182216 57 264 4.0 13.0 0.00 0.86 0.00 87 1019.1
20260507181720 57 24 4.0 13.0 0.00 0.90 0.00 87 1019.1
20260507181223 57 236 5.0 13.0 0.00 0.99 0.00 87 1019.0
20260507180059 57 224 5.0 12.0 0.00 0.99 0.00 87 1018.9
20260507175559 57 284 5.0 11.0 0.00 0.99 0.00 88 1018.9
20260507175056 57 313 5.0 11.0 0.00 0.99 0.00 87 1018.8
20260507173905 57 159 5.0 14.0 0.00 0.99 0.00 87 1018.8
20260507173414 56 288 6.0 14.0 0.00 0.99 0.00 87 1018.8
20260507172913 56 246 6.0 14.0 0.00 0.99 0.00 87 1018.9
20260507172414 56 235 5.0 13.0 0.00 0.99 0.00 87 1018.9
20260507171857 56 281 5.0 12.0 0.00 0.99 0.00 87 1018.8
20260507171404 56 238 5.0 12.0 0.00 0.99 0.00 87 1018.8
20260507170858 56 231 5.0 14.0 0.00 0.99 0.00 87 1018.9
20260507170355 56 54 5.0 14.0 0.00 0.99 0.00 87 1018.9
20260507165851 56 278 5.0 14.0 0.00 0.99 0.00 87 1018.9
20260507165337 56 205 6.0 14.0 0.00 0.99 0.00 87 1018.9
20260507164205 56 305 5.0 12.0 0.00 0.99 0.00 87 1018.9
20260507163645 56 259 5.0 12.0 0.00 0.99 0.00 87 1019.0
20260507162458 56 279 5.0 12.0 0.00 0.99 0.00 87 1019.0
20260507161940 56 77 5.0 11.0 0.00 0.99 0.00 87 1019.1
20260507160834 56 245 5.0 12.0 0.00 0.99 0.00 87 1019.1
20260507160328 56 248 6.0 12.0 0.00 0.99 0.00 87 1019.0
20260507155818 56 328 6.0 12.0 0.00 0.99 0.00 87 1019.0
20260507155324 56 296 5.0 12.0 0.00 0.99 0.00 87 1019.2
20260507154153 56 80 5.0 14.0 0.00 0.99 0.00 87 1019.2
20260507153657 56 298 5.0 14.0 0.00 0.99 0.00 87 1019.3
20260507153141 56 352 6.0 14.0 0.00 0.99 0.00 87 1019.2
20260507152634 56 315 6.0 13.0 0.00 0.99 0.00 86 1019.3
20260507152130 56 52 6.0 15.0 0.00 0.99 0.00 86 1019.4
20260507151627 56 295 6.0 15.0 0.00 0.99 0.00 87 1019.6
20260507151130 56 285 7.0 15.0 0.00 0.99 0.00 86 1019.5
20260507145950 56 326 7.0 13.0 0.00 0.99 0.00 86 1019.6
20260507145440 56 188 6.0 13.0 0.00 0.99 0.00 86 1019.6
20260507144923 56 298 5.0 14.0 0.00 0.99 0.00 86 1019.7
20260507144406 56 296 6.0 14.0 0.00 0.99 0.00 86 1019.7
20260507143908 56 298 6.0 14.0 0.00 0.99 0.00 86 1019.7
20260507142759 55 257 6.0 12.0 0.00 0.99 0.00 86 1019.8
20260507141619 55 59 5.0 15.0 0.00 0.99 0.00 85 1019.8
20260507141115 55 256 5.0 15.0 0.00 0.99 0.00 86 1019.9
20260507140606 55 255 7.0 15.0 0.00 0.99 0.00 85 1019.9
20260507140048 55 281 6.0 15.0 0.00 0.99 0.99 85 1020.0
20260507135539 55 286 6.0 12.0 0.00 0.99 0.99 85 1020.0
20260507135047 55 266 6.0 12.0 0.00 0.99 0.99 85 1019.9
20260507134555 55 311 6.0 17.0 0.00 0.99 0.99 85 1020.0
20260507134043 55 308 6.0 17.0 0.00 0.99 0.99 86 1020.1
20260507133544 55 258 6.0 17.0 0.00 0.99 0.99 86 1020.1
20260507133025 55 234 6.0 17.0 0.00 1.00 0.99 86 1020.2
20260507132526 55 293 6.0 17.0 0.00 1.00 0.99 86 1020.2
20260507132023 55 334 7.0 17.0 0.00 1.00 0.99 85 1020.3
20260507131524 55 284 7.0 17.0 0.00 1.00 0.99 85 1020.2
20260507131017 55 333 7.0 17.0 0.00 1.00 0.99 86 1020.5
20260507125849 54 286 6.0 13.0 0.00 1.00 0.99 85 1020.7
20260507125338 54 255 5.0 13.0 0.00 1.00 0.99 85 1020.7
20260507124830 54 248 5.0 12.0 0.00 1.00 0.99 85 1020.8
20260507124339 54 229 5.0 13.0 0.00 1.01 0.99 85 1020.8
20260507121929 54 289 7.0 15.0 0.00 1.02 0.99 85 1021.1
20260507121414 54 251 7.0 15.0 0.00 1.02 0.99 84 1021.2
20260507120912 54 275 6.0 18.0 0.00 1.02 0.99 84 1021.2
20260507120353 54 267 7.0 18.0 0.00 1.02 0.99 84 1021.2
20260507115222 54 274 7.0 18.0 0.00 1.02 0.99 84 1021.2
20260507114724 54 276 7.0 14.0 0.00 1.02 0.99 84 1021.2
20260507114231 54 302 7.0 14.0 0.00 1.02 0.99 84 1021.1
20260507113730 54 202 8.0 18.0 0.00 1.02 0.99 84 1021.2
20260507113223 54 304 7.0 18.0 0.00 1.02 0.99 83 1021.1
20260507112713 54 248 7.0 18.0 0.00 1.02 0.99 84 1021.1
20260507112221 54 253 7.0 18.0 0.00 1.02 0.99 83 1021.1
20260507111729 54 336 7.0 15.0 0.00 1.02 0.99 83 1021.1
20260507111237 54 293 7.0 15.0 0.00 1.02 0.99 83 1021.1
20260507110719 54 262 7.0 15.0 0.00 1.02 0.99 83 1021.2
20260507110212 54 353 7.0 15.0 0.00 1.02 0.99 84 1021.1
20260507105653 54 298 6.0 16.0 0.00 1.02 0.99 83 1021.0
20260507105151 54 241 7.0 16.0 0.00 1.03 0.99 84 1021.0
20260507104012 53 305 7.0 16.0 0.00 1.03 0.99 84 1021.2
20260507103519 53 317 7.0 17.0 0.00 1.03 0.99 84 1021.3
20260507102959 53 264 6.0 17.0 0.00 1.03 0.98 84 1021.3